| time (UTC) | temp F | wind direction | speed knots | gust knots | rain 1hr in | rain 24hr in | rain mn in | humidity % | barometer mb |
| 20260904180426 | 76 | 337 | 1.7 | 3.5 | 0.00 | 0.00 | 0.00 | 58 | 1013.2 |
| 20260904175426 | 77 | 276 | 4.3 | 7.8 | 0.00 | 0.00 | 0.00 | 56 | 1013.0 |
| 20260904174426 | 77 | 256 | 4.3 | 8.7 | 0.00 | 0.00 | 0.00 | 55 | 1012.7 |
| 20260904173524 | 77 | 244 | 0.9 | 2.6 | 0.00 | 0.00 | 0.00 | 54 | 1012.8 |
| 20260904172527 | 78 | 348 | 2.6 | 5.2 | 0.00 | 0.00 | 0.00 | 52 | 1013.0 |
| 20260904172425 | 78 | 327 | 1.7 | 5.2 | 0.00 | 0.00 | 0.00 | 53 | 1013.0 |
| 20260904171326 | 78 | 11 | 0.0 | 2.6 | 0.00 | 0.00 | 0.00 | 53 | 1012.9 |
| 20260904165342 | 77 | 256 | 0.9 | 4.3 | 0.00 | 0.00 | 0.00 | 56 | 1013.2 |
| 20260904163326 | 77 | 334 | 3.5 | 6.1 | 0.00 | 0.00 | 0.00 | 56 | 1013.3 |
| 20260904162327 | 77 | 305 | 1.7 | 3.5 | 0.00 | 0.00 | 0.00 | 55 | 1013.2 |
| 20260904160425 | 78 | 337 | 0.9 | 2.6 | 0.00 | 0.00 | 0.00 | 57 | 1013.4 |
| 20260904155427 | 77 | 326 | 3.5 | 6.1 | 0.00 | 0.00 | 0.00 | 58 | 1013.6 |
| 20260904154525 | 76 | 337 | 1.7 | 5.2 | 0.00 | 0.00 | 0.00 | 59 | 1013.6 |
| 20260904153426 | 76 | 343 | 3.5 | 6.1 | 0.00 | 0.00 | 0.00 | 60 | 1013.7 |
| 20260904152425 | 76 | 344 | 2.6 | 5.2 | 0.00 | 0.00 | 0.00 | 62 | 1013.7 |
| 20260904151424 | 75 | 260 | 3.5 | 6.1 | 0.00 | 0.00 | 0.00 | 63 | 1013.7 |
| 20260904150441 | 75 | 274 | 1.7 | 7.8 | 0.00 | 0.00 | 0.00 | 66 | 1013.8 |
| 20260904145425 | 75 | 279 | 3.5 | 6.1 | 0.00 | 0.00 | 0.00 | 68 | 1013.9 |
| 20260904145326 | 75 | 279 | 1.7 | 3.5 | 0.00 | 0.00 | 0.00 | 69 | 1013.8 |
| 20260904144241 | 74 | 322 | 0.9 | 2.6 | 0.00 | 0.00 | 0.00 | 75 | 1013.9 |
| 20260904143242 | 73 | 199 | 0.0 | 0.9 | 0.00 | 0.00 | 0.00 | 79 | 1013.7 |
| 20260904141243 | 70 | 270 | 0.0 | 0.0 | 0.00 | 0.00 | 0.00 | 88 | 1014.2 |
| 20260904140326 | 68 | 337 | 0.9 | 2.6 | 0.00 | 0.00 | 0.00 | 88 | 1014.4 |
| 20260904135424 | 68 | 331 | 1.7 | 6.1 | 0.00 | 0.00 | 0.00 | 88 | 1014.5 |
| 20260904133525 | 67 | 320 | 1.7 | 3.5 | 0.00 | 0.00 | 0.00 | 84 | 1014.5 |
| 20260904133426 | 67 | 338 | 0.9 | 3.5 | 0.00 | 0.00 | 0.00 | 84 | 1014.5 |
| 20260904132425 | 66 | 342 | 1.7 | 4.3 | 0.00 | 0.00 | 0.00 | 84 | 1014.4 |
| 20260904131425 | 65 | 337 | 0.0 | 0.9 | 0.00 | 0.00 | 0.00 | 84 | 1014.6 |
| 20260904130426 | 64 | 337 | 0.0 | 1.7 | 0.00 | 0.00 | 0.00 | 84 | 1014.6 |
| 20260904125425 | 63 | 225 | 0.0 | 0.9 | 0.00 | 0.00 | 0.00 | 84 | 1014.6 |
| 20260904123324 | 60 | 157 | 0.9 | 1.7 | 0.00 | 0.00 | 0.00 | 85 | 1014.5 |
| 20260904122324 | 59 | 157 | 0.0 | 0.9 | 0.00 | 0.00 | 0.00 | 85 | 1014.6 |
| 20260904122225 | 59 | 157 | 0.0 | 0.0 | 0.00 | 0.00 | 0.00 | 85 | 1014.5 |
| 20260904122126 | 59 | 157 | 0.0 | 0.9 | 0.00 | 0.00 | 0.00 | 85 | 1014.5 |
| 20260904121125 | 58 | 157 | 0.0 | 0.9 | 0.00 | 0.00 | 0.00 | 85 | 1014.6 |
| 20260904115224 | 58 | 292 | 0.0 | 0.0 | 0.00 | 0.00 | 0.00 | 85 | 1014.5 |
| 20260904115127 | 58 | 292 | 0.0 | 0.0 | 0.00 | 0.00 | 0.00 | 84 | 1014.5 |
| 20260904114126 | 58 | 292 | 0.0 | 0.0 | 0.00 | 0.00 | 0.00 | 84 | 1014.6 |
| 20260904113125 | 58 | 292 | 0.0 | 0.0 | 0.00 | 0.00 | 0.00 | 85 | 1014.5 |
| 20260904112225 | 58 | 292 | 0.0 | 0.0 | 0.00 | 0.00 | 0.00 | 85 | 1014.5 |
| 20260904111324 | 57 | 292 | 0.0 | 0.0 | 0.00 | 0.00 | 0.00 | 84 | 1014.4 |
| 20260904111224 | 57 | 292 | 0.0 | 0.0 | 0.00 | 0.00 | 0.00 | 85 | 1014.5 |
| 20260904110227 | 57 | 22 | 0.0 | 0.0 | 0.00 | 0.00 | 0.00 | 84 | 1014.5 |
| 20260904105324 | 57 | 22 | 0.0 | 0.0 | 0.00 | 0.00 | 0.00 | 85 | 1014.4 |
| 20260904104327 | 56 | 22 | 0.0 | 0.0 | 0.00 | 0.00 | 0.00 | 84 | 1014.3 |
| 20260904103324 | 56 | 22 | 0.0 | 0.0 | 0.00 | 0.00 | 0.00 | 85 | 1014.3 |
| 20260904102327 | 56 | 22 | 0.0 | 0.0 | 0.00 | 0.00 | 0.00 | 85 | 1014.3 |
| 20260904101425 | 56 | 180 | 0.0 | 0.0 | 0.00 | 0.00 | 0.00 | 85 | 1014.2 |
| 20260904100524 | 56 | 180 | 0.0 | 0.0 | 0.00 | 0.00 | 0.00 | 85 | 1014.3 |
| 20260904095526 | 57 | 180 | 0.0 | 0.0 | 0.00 | 0.00 | 0.00 | 85 | 1014.3 |
| 20260904092623 | 57 | 180 | 0.0 | 0.0 | 0.00 | 0.00 | 0.00 | 85 | 1014.1 |
| 20260904091625 | 57 | 180 | 0.0 | 0.0 | 0.00 | 0.01 | 0.00 | 84 | 1014.0 |
| 20260904090625 | 57 | 180 | 0.0 | 0.0 | 0.00 | 0.01 | 0.00 | 84 | 1014.1 |
| 20260904090542 | 57 | 180 | 0.0 | 0.0 | 0.00 | 0.01 | 0.00 | 85 | 1014.1 |
| 20260904085524 | 58 | 180 | 0.0 | 0.0 | 0.00 | 0.01 | 0.00 | 84 | 1014.1 |
| 20260904085425 | 58 | 180 | 0.0 | 0.0 | 0.00 | 0.01 | 0.00 | 84 | 1014.0 |
| 20260904084440 | 58 | 180 | 0.0 | 0.0 | 0.00 | 0.01 | 0.00 | 85 | 1013.9 |
| 20260904083527 | 58 | 180 | 0.0 | 0.0 | 0.00 | 0.02 | 0.00 | 85 | 1014.1 |
| 20260904082623 | 58 | 180 | 0.0 | 0.0 | 0.00 | 0.02 | 0.00 | 85 | 1014.0 |
| 20260904082544 | 58 | 180 | 0.0 | 0.0 | 0.00 | 0.02 | 0.00 | 84 | 1014.1 |
| 20260904081626 | 58 | 180 | 0.0 | 0.0 | 0.00 | 0.02 | 0.00 | 85 | 1014.1 |
| 20260904081540 | 58 | 180 | 0.0 | 0.0 | 0.00 | 0.02 | 0.00 | 85 | 1014.1 |
| 20260904080624 | 58 | 180 | 0.0 | 0.0 | 0.00 | 0.02 | 0.00 | 84 | 1014.2 |
| 20260904075724 | 58 | 180 | 0.0 | 0.0 | 0.00 | 0.02 | 0.00 | 84 | 1014.4 |
| 20260904073725 | 59 | 180 | 0.0 | 0.0 | 0.00 | 0.02 | 0.00 | 84 | 1014.3 |
| 20260904071724 | 59 | 180 | 0.0 | 0.0 | 0.00 | 0.02 | 0.00 | 83 | 1014.3 |
| 20260904070724 | 59 | 180 | 0.0 | 0.0 | 0.00 | 0.02 | 0.00 | 84 | 1014.4 |
| 20260904065724 | 60 | 180 | 0.0 | 0.0 | 0.00 | 0.02 | 0.00 | 84 | 1014.4 |
| 20260904064726 | 60 | 180 | 0.0 | 0.0 | 0.00 | 0.02 | 0.00 | 84 | 1014.5 |
| 20260904064624 | 60 | 180 | 0.0 | 0.0 | 0.00 | 0.02 | 0.00 | 83 | 1014.5 |
| 20260904063724 | 60 | 180 | 0.0 | 0.0 | 0.00 | 0.03 | 0.00 | 83 | 1014.5 |
| 20260904062740 | 60 | 180 | 0.0 | 0.0 | 0.00 | 0.04 | 0.00 | 84 | 1014.5 |
| 20260904061825 | 60 | 180 | 0.0 | 0.0 | 0.00 | 0.04 | 0.00 | 84 | 1014.5 |
| 20260904061740 | 60 | 180 | 0.0 | 0.0 | 0.00 | 0.04 | 0.00 | 84 | 1014.5 |
| 20260904060826 | 60 | 180 | 0.0 | 0.0 | 0.00 | 0.06 | 0.00 | 83 | 1014.6 |
| 20260904055826 | 61 | 180 | 0.0 | 0.0 | 0.00 | 0.07 | 0.00 | 84 | 1014.7 |
| 20260904054824 | 61 | 180 | 0.0 | 0.0 | 0.00 | 0.07 | 0.00 | 84 | 1015.0 |
| 20260904053824 | 61 | 180 | 0.0 | 0.0 | 0.00 | 0.07 | 0.00 | 83 | 1015.1 |
| 20260904051924 | 62 | 180 | 0.0 | 0.0 | 0.00 | 0.07 | 0.00 | 83 | 1015.3 |
| 20260904050926 | 62 | 180 | 0.0 | 0.0 | 0.00 | 0.07 | 0.00 | 84 | 1015.3 |
| 20260904050023 | 62 | 180 | 0.0 | 0.0 | 0.00 | 0.07 | 0.00 | 84 | 1015.4 |
| 20260904045023 | 62 | 180 | 0.0 | 0.0 | 0.00 | 0.07 | 0.00 | 84 | 1015.4 |
| 20260904044025 | 62 | 180 | 0.0 | 0.0 | 0.00 | 0.07 | 0.00 | 84 | 1015.4 |
| 20260904043024 | 63 | 180 | 0.9 | 1.7 | 0.00 | 0.07 | 0.00 | 84 | 1015.4 |
| 20260904042039 | 63 | 180 | 0.0 | 0.0 | 0.00 | 0.07 | 0.00 | 83 | 1015.4 |
| 20260904040028 | 63 | 180 | 0.0 | 0.0 | 0.00 | 0.07 | 0.00 | 85 | 1015.5 |
| 20260904035112 | 63 | 180 | 0.0 | 0.0 | 0.00 | 0.07 | 0.07 | 85 | 1015.4 |
| 20260904034114 | 63 | 180 | 0.0 | 0.0 | 0.00 | 0.07 | 0.07 | 85 | 1015.6 |
| 20260904033111 | 63 | 180 | 0.0 | 0.0 | 0.00 | 0.07 | 0.07 | 84 | 1015.6 |
| 20260904032113 | 64 | 180 | 0.0 | 0.0 | 0.00 | 0.07 | 0.07 | 85 | 1015.6 |
| 20260904031114 | 64 | 180 | 0.0 | 0.0 | 0.00 | 0.07 | 0.07 | 85 | 1015.5 |
| 20260904030111 | 64 | 180 | 0.0 | 0.0 | 0.00 | 0.07 | 0.07 | 85 | 1015.7 |
| 20260904025210 | 64 | 180 | 0.0 | 0.0 | 0.00 | 0.07 | 0.07 | 84 | 1015.7 |
| 20260904023212 | 65 | 225 | 0.0 | 0.0 | 0.00 | 0.07 | 0.07 | 85 | 1015.4 |
| 20260904023113 | 65 | 225 | 0.0 | 0.0 | 0.00 | 0.07 | 0.07 | 84 | 1015.5 |
| 20260904022012 | 66 | 225 | 0.0 | 0.0 | 0.00 | 0.07 | 0.07 | 85 | 1015.5 |
| 20260904021027 | 66 | 225 | 0.0 | 0.0 | 0.00 | 0.07 | 0.07 | 84 | 1015.8 |
| 20260904020112 | 66 | 225 | 0.0 | 0.0 | 0.00 | 0.07 | 0.07 | 84 | 1015.6 |
| 20260904015210 | 67 | 225 | 0.0 | 0.0 | 0.00 | 0.07 | 0.07 | 84 | 1015.9 |
| 20260904015112 | 67 | 225 | 0.0 | 0.0 | 0.00 | 0.07 | 0.07 | 84 | 1015.9 |
| 20260904014111 | 67 | 225 | 0.0 | 0.0 | 0.00 | 0.07 | 0.07 | 85 | 1015.9 |
| 20260904014010 | 67 | 225 | 0.0 | 0.0 | 0.00 | 0.07 | 0.07 | 85 | 1015.8 |
| 20260904013010 | 67 | 225 | 0.0 | 0.0 | 0.00 | 0.07 | 0.07 | 86 | 1015.9 |
| 20260904011011 | 67 | 225 | 0.0 | 0.0 | 0.00 | 0.07 | 0.07 | 85 | 1015.8 |
| 20260904010011 | 67 | 225 | 0.0 | 0.0 | 0.00 | 0.07 | 0.07 | 87 | 1015.9 |
| 20260904005012 | 67 | 225 | 0.0 | 0.0 | 0.00 | 0.07 | 0.07 | 86 | 1015.7 |
| 20260904004910 | 67 | 225 | 0.0 | 0.0 | 0.00 | 0.07 | 0.07 | 87 | 1015.7 |
| 20260904003912 | 67 | 225 | 0.0 | 0.0 | 0.00 | 0.07 | 0.07 | 87 | 1015.5 |
| 20260904003011 | 67 | 225 | 0.0 | 0.0 | 0.00 | 0.07 | 0.07 | 88 | 1015.5 |
| 20260904002012 | 67 | 225 | 0.0 | 0.0 | 0.00 | 0.07 | 0.07 | 87 | 1015.3 |
| 20260904001910 | 67 | 225 | 0.0 | 0.0 | 0.00 | 0.07 | 0.07 | 87 | 1015.3 |
| 20260904000912 | 68 | 225 | 0.0 | 0.0 | 0.00 | 0.07 | 0.07 | 89 | 1015.1 |
| 20260903235911 | 68 | 225 | 0.0 | 0.0 | 0.00 | 0.07 | 0.07 | 88 | 1014.9 |
| 20260903234012 | 69 | 225 | 0.0 | 0.0 | 0.00 | 0.07 | 0.07 | 85 | 1014.8 |
| 20260903233912 | 69 | 225 | 0.0 | 0.0 | 0.00 | 0.07 | 0.07 | 86 | 1014.8 |
| 20260903233012 | 70 | 225 | 0.0 | 0.0 | 0.00 | 0.07 | 0.07 | 85 | 1014.8 |
| 20260903232011 | 71 | 225 | 0.0 | 0.0 | 0.00 | 0.07 | 0.07 | 84 | 1014.5 |
| 20260903231009 | 72 | 225 | 0.0 | 0.0 | 0.00 | 0.07 | 0.07 | 83 | 1014.6 |
| 20260903230012 | 74 | 225 | 0.0 | 0.0 | 0.00 | 0.07 | 0.07 | 80 | 1014.6 |
| 20260903225026 | 76 | 225 | 0.0 | 0.0 | 0.00 | 0.07 | 0.07 | 78 | 1014.8 |
| 20260903223012 | 76 | 225 | 0.0 | 0.9 | 0.00 | 0.07 | 0.07 | 76 | 1014.6 |
| 20260903221013 | 76 | 225 | 0.0 | 0.0 | 0.00 | 0.07 | 0.07 | 77 | 1014.7 |
| 20260903215111 | 76 | 214 | 0.9 | 2.6 | 0.00 | 0.07 | 0.07 | 74 | 1015.1 |
| 20260903214110 | 77 | 245 | 0.9 | 2.6 | 0.00 | 0.07 | 0.07 | 72 | 1014.8 |
| 20260903213209 | 78 | 175 | 1.7 | 5.2 | 0.00 | 0.07 | 0.07 | 72 | 1014.6 |
| 20260903212229 | 78 | 276 | 1.7 | 3.5 | 0.00 | 0.07 | 0.07 | 72 | 1014.8 |
| 20260903211309 | 77 | 247 | 0.0 | 1.7 | 0.00 | 0.07 | 0.07 | 71 | 1014.8 |
| 20260903210312 | 78 | 240 | 2.6 | 3.5 | 0.00 | 0.07 | 0.07 | 71 | 1014.8 |
| 20260903205212 | 80 | 178 | 2.6 | 3.5 | 0.00 | 0.07 | 0.07 | 71 | 1014.7 |
| 20260903204212 | 79 | 213 | 0.9 | 2.6 | 0.00 | 0.07 | 0.07 | 73 | 1014.7 |
| 20260903203211 | 79 | 157 | 0.0 | 0.0 | 0.00 | 0.07 | 0.07 | 74 | 1014.7 |
| 20260903201210 | 78 | 202 | 0.0 | 0.9 | 0.00 | 0.07 | 0.07 | 76 | 1014.9 |
| 20260903201147 | 78 | 190 | 0.0 | 0.9 | 0.00 | 0.07 | 0.07 | 76 | 1015.0 |
| 20260903200230 | 76 | 213 | 0.0 | 2.6 | 0.00 | 0.07 | 0.07 | 79 | 1015.0 |
| 20260903194230 | 75 | 183 | 1.7 | 2.6 | 0.00 | 0.07 | 0.07 | 82 | 1015.4 |
| 20260903193330 | 73 | 180 | 0.0 | 0.0 | 0.00 | 0.07 | 0.07 | 83 | 1015.5 |
| 20260903191431 | 74 | 157 | 0.9 | 0.9 | 0.00 | 0.07 | 0.07 | 83 | 1015.8 |
| 20260903191345 | 74 | 157 | 0.0 | 0.9 | 0.00 | 0.07 | 0.07 | 83 | 1015.8 |
| 20260903190433 | 74 | 202 | 0.0 | 0.0 | 0.00 | 0.07 | 0.07 | 83 | 1015.7 |
| 20260903184629 | 73 | 225 | 0.9 | 2.6 | 0.00 | 0.07 | 0.07 | 82 | 1015.9 |